| time (UTC) | temp C | wind direction | speed KPH | gust KPH | rain 1hr cm | rain 24hr cm | rain mn cm | humidity % | barometer mb |
| 20260510204612 | 28 | 303 | 3.2 | 9.7 | 0.00 | 0.28 | 0.00 | 77 | 1016.0 |
| 20260510203056 | 28 | 66 | 1.6 | 9.7 | 0.00 | 0.28 | 0.00 | 75 | 1016.1 |
| 20260510201600 | 28 | 294 | 3.2 | 9.7 | 0.00 | 0.28 | 0.00 | 73 | 1016.1 |
| 20260510200055 | 28 | 255 | 0.0 | 8.0 | 0.00 | 0.28 | 0.00 | 76 | 1016.0 |
| 20260510194609 | 28 | 103 | 0.0 | 12.9 | 0.00 | 0.28 | 0.00 | 78 | 1016.2 |
| 20260510193057 | 28 | 23 | 0.0 | 12.9 | 0.00 | 0.28 | 0.00 | 77 | 1016.2 |
| 20260510191558 | 28 | 282 | 1.6 | 8.0 | 0.00 | 0.28 | 0.00 | 76 | 1016.3 |
| 20260510190105 | 27 | 231 | 1.6 | 6.4 | 0.00 | 0.28 | 0.00 | 81 | 1016.7 |
| 20260510184605 | 27 | 168 | 3.2 | 9.7 | 0.00 | 0.28 | 0.00 | 80 | 1016.9 |
| 20260510183104 | 28 | 0 | 0.0 | 8.0 | 0.00 | 0.28 | 0.00 | 80 | 1017.1 |
| 20260510181614 | 30 | 0 | 0.0 | 1.6 | 0.00 | 0.28 | 0.00 | 73 | 1017.1 |
| 20260510180059 | 30 | 0 | 0.0 | 3.2 | 0.00 | 0.28 | 0.00 | 74 | 1017.3 |
| 20260510174614 | 30 | 0 | 0.0 | 3.2 | 0.00 | 0.28 | 0.00 | 71 | 1017.4 |
| 20260510173054 | 29 | 0 | 1.6 | 4.8 | 0.00 | 0.28 | 0.00 | 69 | 1017.5 |
| 20260510171619 | 30 | 271 | 0.0 | 3.2 | 0.00 | 0.28 | 0.00 | 70 | 1017.5 |
| 20260510170054 | 30 | 274 | 0.0 | 3.2 | 0.00 | 0.28 | 0.00 | 68 | 1017.7 |
| 20260510164600 | 29 | 0 | 0.0 | 1.6 | 0.00 | 0.61 | 0.00 | 72 | 1017.7 |
| 20260510163057 | 29 | 0 | 0.0 | 4.8 | 0.00 | 0.61 | 0.00 | 75 | 1017.8 |
| 20260510161553 | 28 | 0 | 1.6 | 6.4 | 0.00 | 0.61 | 0.00 | 75 | 1017.6 |
| 20260510160051 | 28 | 0 | 0.0 | 3.2 | 0.00 | 0.61 | 0.00 | 78 | 1017.6 |
| 20260510154553 | 27 | 0 | 0.0 | 6.4 | 0.00 | 1.73 | 0.00 | 81 | 1017.7 |
| 20260510153059 | 27 | 0 | 0.0 | 0.0 | 0.00 | 1.73 | 0.00 | 82 | 1017.5 |
| 20260510151553 | 27 | 0 | 0.0 | 1.6 | 0.00 | 1.73 | 0.00 | 81 | 1017.7 |
| 20260510150056 | 26 | 0 | 0.0 | 1.6 | 0.00 | 1.73 | 0.00 | 85 | 1017.8 |
| 20260510144602 | 26 | 0 | 0.0 | 1.6 | 0.00 | 1.73 | 0.00 | 86 | 1017.7 |
| 20260510143054 | 24 | 306 | 0.0 | 1.6 | 0.00 | 1.73 | 0.00 | 94 | 1017.8 |
| 20260510141553 | 22 | 0 | 0.0 | 1.6 | 0.00 | 1.73 | 0.00 | 100 | 1017.9 |
| 20260510140053 | 22 | 0 | 0.0 | 1.6 | 0.00 | 1.73 | 0.00 | 100 | 1017.8 |
| 20260510134551 | 21 | 0 | 0.0 | 1.6 | 0.00 | 1.73 | 0.00 | 100 | 1017.7 |
| 20260510133053 | 21 | 0 | 0.0 | 0.0 | 0.00 | 1.73 | 0.00 | 100 | 1017.7 |
| 20260510131553 | 20 | 0 | 0.0 | 0.0 | 0.00 | 1.73 | 0.00 | 100 | 1017.7 |
| 20260510130055 | 20 | 0 | 0.0 | 1.6 | 0.00 | 1.73 | 0.00 | 100 | 1017.5 |
| 20260510124557 | 19 | 0 | 0.0 | 1.6 | 0.00 | 1.73 | 0.00 | 100 | 1017.2 |
| 20260510123054 | 18 | 0 | 0.0 | 0.0 | 0.00 | 1.73 | 0.00 | 100 | 1017.1 |
| 20260510121555 | 18 | 0 | 0.0 | 0.0 | 0.00 | 1.73 | 0.00 | 100 | 1016.7 |
| 20260510120053 | 17 | 0 | 0.0 | 0.0 | 0.00 | 1.73 | 0.00 | 100 | 1016.5 |
| 20260510114620 | 17 | 0 | 0.0 | 0.0 | 0.00 | 1.75 | 0.00 | 100 | 1016.3 |
| 20260510113100 | 17 | 0 | 0.0 | 0.0 | 0.00 | 1.75 | 0.00 | 100 | 1016.0 |
| 20260510111555 | 17 | 0 | 0.0 | 0.0 | 0.00 | 1.75 | 0.00 | 100 | 1015.8 |
| 20260510110100 | 17 | 0 | 0.0 | 0.0 | 0.00 | 1.75 | 0.00 | 100 | 1015.7 |
| 20260510104554 | 17 | 0 | 0.0 | 0.0 | 0.00 | 1.75 | 0.00 | 100 | 1015.5 |
| 20260510103056 | 17 | 0 | 0.0 | 0.0 | 0.00 | 1.75 | 0.00 | 100 | 1015.4 |
| 20260510101603 | 17 | 0 | 0.0 | 0.0 | 0.00 | 1.75 | 0.00 | 100 | 1015.1 |
| 20260510100059 | 17 | 0 | 0.0 | 0.0 | 0.00 | 1.75 | 0.00 | 100 | 1015.0 |
| 20260510094556 | 17 | 0 | 0.0 | 0.0 | 0.00 | 1.75 | 0.00 | 100 | 1014.9 |
| 20260510093050 | 18 | 0 | 0.0 | 0.0 | 0.00 | 1.75 | 0.00 | 100 | 1014.7 |
| 20260510091551 | 18 | 0 | 0.0 | 0.0 | 0.00 | 1.75 | 0.00 | 100 | 1014.5 |
| 20260510090052 | 18 | 0 | 0.0 | 0.0 | 0.00 | 1.75 | 0.00 | 100 | 1014.2 |
| 20260510084609 | 18 | 0 | 0.0 | 0.0 | 0.00 | 1.75 | 0.00 | 100 | 1014.1 |
| 20260510083053 | 18 | 0 | 0.0 | 0.0 | 0.00 | 1.75 | 0.00 | 100 | 1014.0 |
| 20260510081556 | 18 | 0 | 0.0 | 0.0 | 0.00 | 1.75 | 0.00 | 100 | 1013.7 |
| 20260510080100 | 18 | 0 | 0.0 | 0.0 | 0.00 | 1.75 | 0.00 | 100 | 1013.5 |
| 20260510074557 | 18 | 0 | 0.0 | 0.0 | 0.00 | 1.78 | 0.00 | 100 | 1013.3 |
| 20260510073058 | 18 | 0 | 0.0 | 0.0 | 0.00 | 1.78 | 0.00 | 100 | 1013.3 |
| 20260510071553 | 18 | 0 | 0.0 | 0.0 | 0.00 | 1.78 | 0.00 | 100 | 1013.2 |
| 20260510070107 | 18 | 0 | 0.0 | 0.0 | 0.00 | 1.78 | 0.00 | 100 | 1013.3 |
| 20260510064556 | 18 | 0 | 0.0 | 0.0 | 0.00 | 1.78 | 0.00 | 100 | 1013.3 |
| 20260510063050 | 18 | 0 | 0.0 | 0.0 | 0.00 | 1.78 | 0.00 | 100 | 1013.6 |
| 20260510061552 | 18 | 0 | 0.0 | 0.0 | 0.00 | 1.78 | 0.00 | 100 | 1013.7 |
| 20260510060053 | 18 | 0 | 0.0 | 0.0 | 0.00 | 1.78 | 0.00 | 100 | 1013.9 |
| 20260510054551 | 18 | 0 | 0.0 | 0.0 | 0.00 | 1.80 | 0.00 | 100 | 1014.1 |
| 20260510053053 | 18 | 0 | 0.0 | 0.0 | 0.03 | 1.80 | 0.00 | 100 | 1014.1 |
| 20260510051605 | 19 | 0 | 0.0 | 0.0 | 0.03 | 1.80 | 0.00 | 100 | 1014.5 |
| 20260510050106 | 19 | 0 | 0.0 | 0.0 | 0.03 | 1.80 | 0.00 | 100 | 1014.4 |
| 20260510044554 | 19 | 275 | 0.0 | 0.0 | 0.05 | 1.80 | 1.80 | 100 | 1014.0 |
| 20260510043054 | 19 | 0 | 0.0 | 0.0 | 0.03 | 1.78 | 1.78 | 100 | 1014.1 |
| 20260510041553 | 19 | 0 | 0.0 | 0.0 | 0.03 | 1.78 | 1.78 | 100 | 1014.7 |
| 20260510034555 | 20 | 0 | 0.0 | 0.0 | 0.00 | 1.75 | 1.75 | 100 | 1014.9 |
| 20260510033100 | 20 | 0 | 0.0 | 1.6 | 0.00 | 1.75 | 1.75 | 100 | 1014.7 |
| 20260510031555 | 20 | 0 | 0.0 | 0.0 | 0.00 | 1.75 | 1.75 | 100 | 1014.6 |
| 20260510024554 | 20 | 0 | 0.0 | 0.0 | 0.00 | 1.78 | 1.75 | 100 | 1014.2 |
| 20260510023052 | 20 | 0 | 0.0 | 0.0 | 0.00 | 1.78 | 1.75 | 100 | 1014.0 |
| 20260510021641 | 20 | 0 | 0.0 | 0.0 | 0.00 | 1.78 | 1.75 | 100 | 1014.0 |
| 20260510020059 | 20 | 0 | 0.0 | 0.0 | 0.00 | 1.78 | 1.75 | 100 | 1013.8 |
| 20260510014558 | 20 | 0 | 0.0 | 0.0 | 0.03 | 1.80 | 1.75 | 100 | 1013.8 |
| 20260510013107 | 20 | 0 | 0.0 | 0.0 | 0.05 | 1.80 | 1.75 | 100 | 1014.1 |
| 20260510011556 | 20 | 0 | 0.0 | 0.0 | 0.05 | 1.80 | 1.75 | 100 | 1014.5 |
| 20260510010059 | 20 | 0 | 0.0 | 1.6 | 0.05 | 1.80 | 1.75 | 100 | 1014.3 |
| 20260510004555 | 20 | 0 | 0.0 | 1.6 | 0.05 | 1.85 | 1.73 | 100 | 1014.6 |
| 20260510003054 | 20 | 0 | 0.0 | 0.0 | 0.03 | 1.83 | 1.70 | 100 | 1013.6 |
| 20260510001603 | 20 | 0 | 0.0 | 3.2 | 0.05 | 1.83 | 1.70 | 100 | 1013.2 |
| 20260510000054 | 20 | 0 | 0.0 | 0.0 | 0.05 | 1.83 | 1.70 | 100 | 1012.5 |
| 20260509234628 | 20 | 0 | 0.0 | 0.0 | 0.05 | 1.88 | 1.68 | 100 | 1013.0 |
| 20260509233051 | 20 | 0 | 0.0 | 0.0 | 0.08 | 1.88 | 1.68 | 100 | 1013.3 |
| 20260509231553 | 20 | 0 | 0.0 | 0.0 | 0.08 | 1.85 | 1.65 | 100 | 1013.1 |
| 20260509230054 | 21 | 0 | 0.0 | 0.0 | 0.08 | 1.85 | 1.65 | 100 | 1013.5 |
| 20260509224553 | 21 | 0 | 0.0 | 0.0 | 0.08 | 1.83 | 1.63 | 100 | 1013.5 |
| 20260509223054 | 21 | 0 | 0.0 | 0.0 | 0.05 | 1.80 | 1.60 | 100 | 1013.3 |
| 20260509221553 | 21 | 0 | 0.0 | 0.0 | 0.03 | 1.78 | 1.57 | 100 | 1013.2 |
| 20260509220055 | 21 | 0 | 0.0 | 0.0 | 0.03 | 1.78 | 1.57 | 100 | 1013.1 |
| 20260509214552 | 21 | 0 | 0.0 | 0.0 | 0.03 | 1.96 | 1.55 | 100 | 1013.0 |
| 20260509213105 | 21 | 0 | 0.0 | 0.0 | 0.03 | 1.96 | 1.55 | 100 | 1012.9 |
| 20260509211602 | 21 | 0 | 0.0 | 0.0 | 0.03 | 1.96 | 1.55 | 100 | 1013.3 |
| 20260509210053 | 21 | 0 | 0.0 | 0.0 | 0.03 | 1.96 | 1.55 | 100 | 1013.2 |